BMCB-30 Weather Reports


time (UTC)temp
C
wind
direction
speed
KPH
gust
KPH
rain 1hr
cm
rain 24hr
cm
rain mn
cm
humidity
%
barometer
mb
20260506234048 6 0 0.0 0.0 0.00 1.07 0.00 10 1014.6
20260506233049 6 0 0.0 0.0 0.00 1.09 0.00 10 1014.5
20260506232046 6 0 0.0 0.0 0.00 1.12 0.00 10 1014.5
20260506231047 5 0 0.0 0.0 0.00 1.14 0.00 10 1014.4
20260506230048 5 0 0.0 0.0 0.00 1.17 0.00 10 1014.3
20260506225045 5 0 0.0 0.0 0.00 1.17 0.00 99 1014.2
20260506223048 6 0 0.0 0.0 0.00 1.22 0.00 99 1014.1
20260506222047 6 0 0.0 0.0 0.00 1.24 0.00 99 1014.0
20260506221045 6 0 0.0 0.0 0.00 1.27 0.00 99 1013.9
20260506220055 6 0 0.0 0.0 0.00 1.27 0.00 99 1013.8
20260506213048 6 0 0.0 0.0 0.00 1.30 1.27 98 1013.6
20260506212049 7 0 0.0 0.0 0.00 1.32 1.27 98 1013.5
20260506211049 7 0 0.0 0.0 0.00 1.32 1.27 99 1013.3
20260506210048 7 0 0.0 0.0 0.00 1.32 1.27 98 1013.2
20260506205048 7 0 0.0 0.0 0.00 1.35 1.27 98 1013.1
20260506204047 7 0 0.0 0.0 0.00 1.35 1.27 98 1012.9
20260506203049 8 0 0.0 0.0 0.00 1.35 1.27 98 1012.8
20260506202047 8 0 0.0 0.0 0.00 1.37 1.27 98 1012.7
20260506201051 8 0 0.0 0.0 0.00 1.37 1.27 98 1012.6
20260506200049 9 0 0.0 0.0 0.00 1.37 1.27 97 1012.5
20260506195048 9 0 0.0 0.0 0.00 1.37 1.27 97 1012.4
20260506193050 10 0 0.0 0.0 0.00 1.40 1.27 98 1012.2
20260506192046 10 0 0.0 0.0 0.00 1.42 1.27 97 1012.1
20260506191046 10 0 0.0 0.0 0.00 1.45 1.27 97 1012.1
20260506190048 10 0 0.0 0.0 0.00 1.45 1.27 96 1012.0
20260506184046 10 0 0.0 0.0 0.00 1.50 1.27 95 1011.8
20260506183054 10 0 0.0 0.0 0.00 1.50 1.27 93 1011.8
20260506182049 10 0 0.0 0.0 0.00 1.52 1.27 93 1011.6
20260506181045 10 0 0.0 0.0 0.00 1.55 1.27 92 1011.5
20260506180048 10 0 0.0 0.0 0.00 1.55 1.27 92 1011.4
20260506175049 10 0 0.0 0.0 0.00 1.55 1.27 91 1011.3
20260506174049 10 0 0.0 0.0 0.00 1.55 1.27 90 1011.2
20260506173045 10 0 0.0 0.0 0.00 1.57 1.27 88 1011.1
20260506171050 11 0 0.0 0.0 0.00 1.60 1.27 92 1010.9
20260506170045 11 0 0.0 0.0 0.00 1.63 1.27 91 1010.9
20260506165044 11 0 0.0 0.0 0.00 1.63 1.27 90 1010.9
20260506164046 11 0 0.0 0.0 0.00 1.63 1.27 88 1010.8
20260506163046 11 0 0.0 0.0 0.00 1.65 1.27 89 1010.7
20260506162047 11 0 0.0 0.0 0.00 1.65 1.27 90 1010.7
20260506160046 11 0 0.0 0.0 0.00 1.65 1.27 88 1010.8
20260506155045 11 0 0.0 0.0 0.00 1.65 1.27 90 1010.8
20260506154050 11 0 0.0 0.0 0.00 1.68 1.27 90 1010.8
20260506153047 11 0 0.0 0.0 0.00 1.68 1.27 92 1010.8
20260506152046 11 0 0.0 0.0 0.00 1.68 1.27 90 1010.8
20260506151049 11 0 0.0 0.0 0.00 1.68 1.27 89 1010.7
20260506145047 10 0 0.0 0.0 0.00 1.68 1.27 94 1010.8
20260506144046 10 0 0.0 0.0 0.00 1.68 1.27 97 1010.9
20260506142045 10 0 0.0 0.0 0.00 1.68 1.27 96 1010.9
20260506141046 10 0 0.0 0.0 0.00 1.68 1.27 95 1010.9
20260506140052 10 0 0.0 0.0 0.00 1.68 1.27 94 1010.8
20260506135047 10 0 0.0 0.0 0.00 1.68 1.27 93 1010.8
20260506134047 10 0 0.0 0.0 0.00 1.68 1.27 93 1010.8
20260506133045 10 0 0.0 0.0 0.00 1.68 1.27 95 1010.8
20260506132046 10 0 0.0 0.0 0.00 1.68 1.27 95 1010.8
20260506131046 10 0 0.0 0.0 0.00 1.68 1.27 94 1010.8
20260506130046 10 0 0.0 0.0 0.00 1.68 1.27 94 1010.7
20260506125047 10 0 0.0 0.0 0.00 1.68 1.27 94 1010.7
20260506124045 11 0 0.0 0.0 0.00 1.68 1.27 94 1010.5
20260506123047 11 0 0.0 0.0 0.00 1.68 1.27 95 1010.4
20260506122046 10 0 0.0 0.0 0.00 1.68 1.27 95 1010.3
20260506121045 10 0 0.0 0.0 0.00 1.68 1.27 96 1010.3
20260506120044 10 0 0.0 0.0 0.00 1.68 1.27 97 1010.2
20260506115045 10 0 0.0 0.0 0.00 1.68 1.27 97 1010.2
20260506114047 10 0 0.0 0.0 0.00 1.68 1.27 99 1010.0
20260506113050 10 0 0.0 0.0 0.03 1.68 1.27 10 1010.0
20260506112047 10 0 0.0 0.0 0.03 1.68 1.27 10 1010.0
20260506110044 10 0 0.0 0.0 0.03 1.68 1.27 10 1010.1
20260506105045 9 0 0.0 0.0 0.03 1.68 1.27 10 1010.1
20260506104045 9 0 0.0 0.0 0.05 1.68 1.27 10 1010.1
20260506103048 9 0 0.0 0.0 0.05 1.68 1.27 10 1010.1
20260506102050 9 0 0.0 0.0 0.05 1.65 1.27 10 1010.1
20260506100043 9 0 0.0 0.0 0.08 1.65 1.27 10 1010.0
20260506095046 8 0 0.0 0.0 0.08 1.65 1.27 10 1010.0
20260506093045 8 0 0.0 0.0 0.10 1.65 1.24 10 1009.9
20260506092047 8 0 0.0 0.0 0.13 1.65 1.24 10 1009.8
20260506091046 8 0 0.0 0.0 0.13 1.63 1.22 10 1009.7
20260506090047 8 0 0.0 0.0 0.10 1.60 1.19 10 1009.8
20260506085045 8 0 0.0 0.0 0.10 1.57 1.17 10 1009.7
20260506084044 8 0 0.0 0.0 0.10 1.57 1.17 10 1009.6
20260506083044 8 0 0.0 0.0 0.08 1.55 1.17 10 1009.5
20260506082046 8 0 0.0 0.0 0.05 1.55 1.14 10 1009.4
20260506073043 7 0 0.0 0.0 0.05 1.47 1.09 10 1009.1
20260506072043 7 0 0.0 0.0 0.05 1.47 1.09 10 1009.0
20260506071044 7 0 0.0 0.0 0.08 1.47 1.09 10 1009.0
20260506062044 7 0 0.0 0.0 0.15 1.42 1.02 10 1008.6
20260506061043 7 0 0.0 0.0 0.15 1.42 1.02 10 1008.6
20260506051045 7 0 0.0 0.0 0.13 1.27 0.89 10 1008.5
20260506045043 7 0 0.0 0.0 0.08 1.22 0.81 10 1008.5
20260506044045 7 0 0.0 0.0 0.10 1.22 0.81 10 1008.5
20260506042044 7 0 0.0 0.0 0.08 1.17 0.79 10 1008.4
20260506041044 7 0 0.0 0.0 0.10 1.17 0.79 10 1008.4
20260506040046 8 0 0.0 0.0 0.10 1.17 0.76 10 1008.4
20260506035046 8 0 0.0 0.0 0.10 1.17 0.76 10 1008.5
20260506034045 8 0 0.0 0.0 0.10 1.14 0.74 10 1008.5
20260506033043 8 0 0.0 0.0 0.08 1.12 0.71 10 1008.5
20260506032045 8 0 0.0 0.0 0.10 1.12 0.71 10 1008.5
20260506031043 8 0 0.0 0.0 0.10 1.09 0.71 10 1008.4
20260506030043 8 0 0.0 0.0 0.10 1.09 0.69 10 1008.5
20260506025045 8 0 0.0 0.0 0.10 1.07 0.66 10 1008.5
20260506024045 8 0 0.0 0.0 0.15 1.07 0.66 10 1008.6
20260506023045 8 0 0.0 0.0 0.15 1.04 0.64 10 1008.6
20260506022043 8 0 0.0 0.0 0.18 1.04 0.64 10 1008.6
20260506021045 8 0 0.0 0.0 0.18 1.02 0.61 10 1008.6
20260506020044 8 0 0.0 0.0 0.18 1.02 0.61 10 1008.6
20260506015044 8 0 0.0 0.0 0.18 0.99 0.58 10 1008.7
20260506014046 8 0 0.0 0.0 0.15 0.99 0.56 10 1008.7
20260506012045 8 0 0.0 0.0 0.15 0.91 0.51 10 1008.7
20260506011044 8 0 0.0 0.0 0.15 0.89 0.46 10 1008.7
20260506010040 8 0 0.0 0.0 0.15 0.86 0.43 10 1008.7
20260506004045 8 0 0.0 0.0 0.18 0.81 0.41 10 1008.8
20260506003043 8 0 0.0 0.0 0.23 0.81 0.41 10 1008.9
20260506002044 8 0 0.0 0.0 0.23 0.79 0.38 10 1009.0
20260506000048 8 0 0.0 0.0 0.20 0.74 0.33 10 1009.2
20260505235047 8 0 0.0 0.0 0.18 0.71 0.28 10 1009.3